Find Starlink 33842

NORAD ID: 63782 Int'l Des: 2025-091 Owner: SPXS Country: US Constellation: starlink operational
LEOCIRCULAR

リアルタイム位置

3D地球を読み込み中...

Starlink 33842について

説明を読み込み中...

次回通過

Passes for default location (London). Set your location on the main map for personalized predictions.

高度履歴

Loading altitude history...

軌道要素

1 63782U 25091H 26125.58668679 .00028360 00000-0 10355-2 0 9999
2 63782 42.9954 91.2195 0002175 291.1193 68.9426 15.27600005 57697
Epoch: May 5, 2026 • Age: 14 hours

現在のステータス

高度 481.8 km
速度 7.63 km/s
衛星直下点 3.64°N, 164.34°E
打ち上げ日 May 2, 2025
運用期間 1 years
タイプ internet

技術仕様

分類 Payload
質量 575.00 kg
乾燥質量 530.00 kg
総質量 575.00 kg
長さ 0.30 m
直径 4.10 m
スパン 29.00 m
形状 Box + pan
製造者 SPXS
バスタイプ Starlink V2MO
フェーズステータス In Orbit
所有者/国 SPXS/US

Most Searched